KD2FKI Weather Reports


time (UTC)temp
C
wind
direction
speed
KPH
gust
KPH
rain 1hr
cm
rain 24hr
cm
rain mn
cm
humidity
%
barometer
mb
20260507174045 20 0.0 0.0 0.00 0.05 0.05 43
20260507173035 20 0.0 0.0 0.00 0.05 0.05 44
20260507172042 20 0.0 0.0 0.00 0.05 0.05 45
20260507171033 19 0.0 0.0 0.00 0.05 0.05 47
20260507170043 18 0.0 0.0 0.00 0.05 0.05 48
20260507165030 18 0.0 0.0 0.00 0.05 0.05 48
20260507164056 17 0.0 0.0 0.00 0.05 0.05 49
20260507163047 17 0.0 0.0 0.00 0.05 0.05 50
20260507162035 16 0.0 0.0 0.00 0.05 0.05 50
20260507161102 16 0.0 0.0 0.00 0.05 0.05 51
20260507160053 15 0.0 0.0 0.00 0.05 0.05 56
20260507155136 14 0.0 0.0 0.00 0.05 0.05 54
20260507154031 14 0.0 0.0 0.00 0.05 0.05 55
20260507153040 13 0.0 0.0 0.00 0.05 0.05 57
20260507152046 13 0.0 0.0 0.00 0.05 0.05 56
20260507151037 13 0.0 0.0 0.00 0.05 0.05 56
20260507150045 13 0.0 0.0 0.00 0.05 0.05 57
20260507145052 13 0.0 0.0 0.00 0.08 0.05 59
20260507144041 13 0.0 0.0 0.00 0.10 0.05 60
20260507143033 13 0.0 0.0 0.00 0.10 0.05 61
20260507142038 12 0.0 0.0 0.00 0.10 0.05 61
20260507141047 12 0.0 0.0 0.00 0.10 0.05 63
20260507140038 12 0.0 0.0 0.00 0.13 0.05 63
20260507135044 12 0.0 0.0 0.00 0.15 0.05 63
20260507134033 12 0.0 0.0 0.00 0.15 0.05 65
20260507133042 12 0.0 0.0 0.00 0.20 0.05 66
20260507132032 12 0.0 0.0 0.00 0.25 0.05 68
20260507131040 12 0.0 0.0 0.00 0.30 0.05 69
20260507130029 12 0.0 0.0 0.00 0.36 0.05 69
20260507125037 12 0.0 0.0 0.00 0.38 0.05 69
20260507124050 12 0.0 0.0 0.00 0.41 0.05 71
20260507123034 12 0.0 0.0 0.00 0.41 0.05 71
20260507122045 12 0.0 0.0 0.00 0.43 0.05 72
20260507121032 12 0.0 0.0 0.00 0.46 0.05 71
20260507120042 12 0.0 0.0 0.00 0.48 0.05 71
20260507115030 12 0.0 0.0 0.00 0.51 0.05 73
20260507114043 12 0.0 0.0 0.00 0.51 0.05 75
20260507113046 12 0.0 0.0 0.00 0.51 0.05 77
20260507112040 12 0.0 0.0 0.00 0.51 0.05 77
20260507111043 12 0.0 0.0 0.00 0.51 0.05 78
20260507110036 12 0.0 0.0 0.00 0.51 0.05 77
20260507105041 12 0.0 0.0 0.00 0.51 0.05 77
20260507104036 12 0.0 0.0 0.00 0.51 0.05 78
20260507103040 12 0.0 0.0 0.00 0.51 0.05 79
20260507102049 12 0.0 0.0 0.00 0.51 0.05 79
20260507101055 12 0.0 0.0 0.00 0.51 0.05 81
20260507100044 12 0.0 0.0 0.00 0.51 0.05 83
20260507095033 12 0.0 0.0 0.00 0.51 0.05 84
20260507094100 12 0.0 0.0 0.00 0.51 0.05 84
20260507093031 12 0.0 0.0 0.00 0.51 0.05 84
20260507092041 12 0.0 0.0 0.00 0.51 0.05 84
20260507091105 12 0.0 0.0 0.00 0.51 0.05 86
20260507090209 12 0.0 0.0 0.00 0.51 0.05 87
20260507085044 12 0.0 0.0 0.00 0.51 0.05 87
20260507084036 12 0.0 0.0 0.00 0.51 0.05 87
20260507083041 12 0.0 0.0 0.00 0.51 0.05 88
20260507082034 12 0.0 0.0 0.00 0.51 0.05 89
20260507081039 12 0.0 0.0 0.00 0.51 0.05 90
20260507080032 12 0.0 0.0 0.00 0.51 0.05 92
20260507075037 12 0.0 0.0 0.00 0.51 0.05 94
20260507074045 12 0.0 0.0 0.00 0.51 0.05 94
20260507073034 12 0.0 0.0 0.00 0.51 0.05 94
20260507072042 12 0.0 0.0 0.00 0.51 0.05 93
20260507071033 12 0.0 0.0 0.00 0.51 0.05 93
20260507070058 12 0.0 0.0 0.00 0.51 0.05 92
20260507065030 12 0.0 0.0 0.00 0.51 0.05 91
20260507064040 12 0.0 0.0 0.00 0.51 0.05 92
20260507063045 12 0.0 0.0 0.00 0.51 0.05 93
20260507062035 12 0.0 0.0 0.00 0.51 0.05 95
20260507061043 12 0.0 0.0 0.00 0.51 0.05 96
20260507060053 12 0.0 0.0 0.05 0.51 0.05 96
20260507055040 13 0.0 0.0 0.05 0.51 0.05 97
20260507054048 13 0.0 0.0 0.05 0.51 0.05 97
20260507053037 13 0.0 0.0 0.05 0.51 0.05 97
20260507052105 13 0.0 0.0 0.05 0.51 0.05 97
20260507051035 13 0.0 0.0 0.05 0.51 0.05 96
20260507050043 13 0.0 0.0 0.00 0.46 0.00 95
20260507045033 14 0.0 0.0 0.00 0.46 0.00 94
20260507044041 14 0.0 0.0 0.00 0.46 0.00 90
20260507043031 14 0.0 0.0 0.00 0.46 0.00 88
20260507042038 15 0.0 0.0 0.00 0.46 0.00 89
20260507041051 15 0.0 0.0 0.00 0.46 0.00 87
20260507040036 15 0.0 0.0 0.00 0.46 0.00 84
20260507035048 16 0.0 0.0 0.00 0.46 0.46 85
20260507034052 16 0.0 0.0 0.00 0.46 0.46 85
20260507033046 16 0.0 0.0 0.00 0.46 0.46 85
20260507032031 16 0.0 0.0 0.00 0.46 0.46 83
20260507031042 16 0.0 0.0 0.00 0.46 0.46 81
20260507030047 16 0.0 0.0 0.00 0.46 0.46 80
20260507025042 17 0.0 0.0 0.00 0.46 0.46 80
20260507024044 17 0.0 0.0 0.00 0.46 0.46 81
20260507023038 17 0.0 0.0 0.00 0.46 0.46 81
20260507022044 17 0.0 0.0 0.00 0.46 0.46 82
20260507021036 17 0.0 0.0 0.00 0.46 0.46 82
20260507020039 17 0.0 0.0 0.00 0.46 0.46 83
20260507015049 18 0.0 0.0 0.00 0.46 0.46 85
20260507014037 18 0.0 0.0 0.00 0.46 0.46 87
20260507013047 18 0.0 0.0 0.00 0.46 0.46 87
20260507012035 18 0.0 0.0 0.00 0.46 0.46 86
20260507011044 19 0.0 0.0 0.00 0.46 0.46 85
20260507010032 19 0.0 0.0 0.00 0.46 0.46 82
20260507005042 20 0.0 0.0 0.00 0.46 0.46 83
20260507004029 20 0.0 0.0 0.00 0.46 0.46 86
20260507003039 20 0.0 0.0 0.00 0.46 0.46 86
20260507002044 20 0.0 0.0 0.00 0.46 0.46 86
20260507001037 20 0.0 0.0 0.00 0.46 0.46 84
20260507000043 21 0.0 0.0 0.00 0.46 0.46 83
20260506235034 21 0.0 0.0 0.00 0.46 0.46 82
20260506234039 21 0.0 0.0 0.00 0.46 0.46 82
20260506233032 21 0.0 0.0 0.00 0.46 0.46 81
20260506232037 21 0.0 0.0 0.00 0.46 0.46 80
20260506231046 21 0.0 0.0 0.00 0.46 0.46 80
20260506230035 21 0.0 0.0 0.00 0.46 0.46 80
20260506225043 22 0.0 0.0 0.00 0.46 0.46 79
20260506224034 22 0.0 0.0 0.00 0.46 0.46 79
20260506223040 21 0.0 0.0 0.00 0.46 0.46 79
20260506222030 22 0.0 0.0 0.00 0.46 0.46 78
20260506221038 22 0.0 0.0 0.00 0.46 0.46 77
20260506220053 22 0.0 0.0 0.00 0.46 0.46 77
20260506215053 22 0.0 0.0 0.00 0.46 0.46 78
20260506214044 22 0.0 0.0 0.00 0.46 0.46 78
20260506213054 22 0.0 0.0 0.00 0.46 0.46 79
20260506212040 22 0.0 0.0 0.00 0.46 0.46 78
20260506211031 22 0.0 0.0 0.00 0.46 0.46 79
20260506205046 22 0.0 0.0 0.00 0.46 0.46 77
20260506204036 22 0.0 0.0 0.00 0.46 0.46 77
20260506203046 21 0.0 0.0 0.00 0.46 0.46 79
20260506202035 22 0.0 0.0 0.00 0.46 0.46 78
20260506201041 22 0.0 0.0 0.00 0.46 0.46 78
20260506200031 21 0.0 0.0 0.00 0.46 0.46 79
20260506194047 21 0.0 0.0 0.00 0.46 0.46 79
20260506193038 21 0.0 0.0 0.00 0.46 0.46 80
20260506192044 21 0.0 0.0 0.00 0.46 0.46 78
20260506191034 22 0.0 0.0 0.00 0.46 0.46 77
20260506190046 21 0.0 0.0 0.00 0.46 0.46 79
20260506185032 21 0.0 0.0 0.00 0.46 0.46 80
20260506184039 20 0.0 0.0 0.00 0.46 0.46 81
20260506183032 20 0.0 0.0 0.00 0.46 0.46 83
20260506182057 20 0.0 0.0 0.00 0.46 0.46 84
20260506181045 20 0.0 0.0 0.00 0.46 0.46 84
20260506180039 20 0.0 0.0 0.00 0.46 0.46 83
20260506175042 20 0.0 0.0 0.00 0.46 0.46 83